Weather reports worldwide

Advertisment
Glenanne, United Kingdom (3923): temperature & dewpoint: 13.08.2018 20:00:00 - 19.08.2018 20:00:00 (BST)Glenanne, United Kingdom (3923): temperature -100cm: 13.08.2018 20:00:00 - 19.08.2018 20:00:00 (BST)Glenanne, United Kingdom (3923): wind speed & gusts: 13.08.2018 20:00:00 - 19.08.2018 20:00:00 (BST)Glenanne, United Kingdom (3923): wind direction: 13.08.2018 20:00:00 - 19.08.2018 20:00:00 (BST)Glenanne, United Kingdom (3923): reduced air pressure: 13.08.2018 20:00:00 - 19.08.2018 20:00:00 (BST)Glenanne, United Kingdom (3923): visibility: 13.08.2018 20:00:00 - 19.08.2018 20:00:00 (BST)Glenanne, United Kingdom (3923): precipitation: 13.08.2018 20:00:00 - 19.08.2018 20:00:00 (BST)
Date & Time tt [°C] td [°C] tt -100cm [°C] ff [km/h] ff [kn] fx [km/h] fx [kn] dd ppp [hPa] vv [km] rr [mm]
19.08.2018 20:00:00 15,9 15,3 - 4 2 - - ENE 1017,9 16 0,0
19.08.2018 19:00:00 16,0 15,5 - 8 4 - - NNE 1018,0 13 0,0
19.08.2018 18:00:00 17,2 16,1 - 9 5 - - NNE 1017,4 18 0,0
19.08.2018 17:00:00 18,7 16,4 - 4 2 - - N 1016,9 40 0,0
19.08.2018 16:00:00 19,5 17,5 - 4 2 - - ESE 1016,6 30 0,0
19.08.2018 15:00:00 18,3 16,3 - 5 3 - - NNE 1016,6 21 0,0
19.08.2018 14:00:00 19,0 16,3 - 11 6 - - NNW 1016,2 45 0,0
19.08.2018 13:00:00 19,1 16,1 - 15 8 - - NW 1015,6 45 0,0
19.08.2018 12:00:00 18,2 16,0 - 15 8 - - NW 1015,1 29 0,0
19.08.2018 11:00:00 17,6 15,8 - 15 8 - - NNW 1014,4 45 0,0
19.08.2018 10:00:00 16,8 15,5 14,5 13 7 - - N 1013,5 45 0,0
19.08.2018 09:00:00 15,9 15,4 - 15 8 - - NNW 1012,8 45 0,0
19.08.2018 08:00:00 15,8 15,5 - 13 7 - - NW 1011,8 3,4 0,2
19.08.2018 07:00:00 15,7 15,3 - 13 7 - - NW 1010,7 4,3 0,0
19.08.2018 06:00:00 15,7 15,2 - 13 7 - - WNW 1009,4 17 0,0
19.08.2018 05:00:00 15,5 15,0 - 8 4 - - W 1009,0 4,8 0,0
19.08.2018 04:00:00 15,6 14,8 - 11 6 - - WSW 1008,5 14 0,0
19.08.2018 03:00:00 16,3 15,3 - 9 5 - - W 1008,4 50 0,0
19.08.2018 02:00:00 16,7 16,3 - 16 9 - - SSW 1008,0 30 0,2
19.08.2018 01:00:00 16,7 16,3 - 24 13 - - SSW 1008,5 14 0,4
19.08.2018 00:00:00 17,1 16,9 - 28 15 - - S 1009,5 7 5,0
18.08.2018 23:00:00 16,0 15,5 - 9 5 - - SE 1010,7 3,6 9,2
18.08.2018 22:00:00 16,9 15,7 - 5 3 - - E 1011,6 3,6 1,4
18.08.2018 21:00:00 17,6 15,4 - 4 2 - - E 1012,3 45 0,0
18.08.2018 20:00:00 18,1 15,4 - 2 1 - - SSW 1013,1 50 0,0
18.08.2018 19:00:00 18,9 15,6 - 5 3 - - WSW 1013,5 50 0,0
18.08.2018 18:00:00 19,1 15,5 - 11 6 - - SW 1013,7 40 0,0
18.08.2018 17:00:00 19,4 15,1 - 9 5 - - WSW 1013,7 45 0,0
18.08.2018 16:00:00 19,8 15,1 - 18 10 - - WSW 1013,5 28 0,0
18.08.2018 15:00:00 20,4 15,8 - 13 7 - - WSW 1013,3 40 0,0
18.08.2018 14:00:00 20,1 14,4 - 15 8 - - WSW 1014,1 40 0,0
18.08.2018 13:00:00 19,8 15,6 - 15 8 - - WSW 1014,2 40 0,0
18.08.2018 12:00:00 17,8 15,3 - 11 6 - - WSW 1014,1 35 0,0
18.08.2018 11:00:00 17,2 15,1 - 16 9 - - WSW 1013,9 30 0,0
18.08.2018 10:00:00 17,1 14,9 14,5 16 9 - - WSW 1013,2 35 0,0
18.08.2018 09:00:00 16,4 15,0 - 15 8 - - W 1013,2 35 0,0
18.08.2018 08:00:00 15,9 14,8 - 15 8 - - W 1013,1 23 0,0
18.08.2018 07:00:00 15,7 14,6 - 18 10 - - W 1012,6 9 0,0
18.08.2018 06:00:00 15,7 14,3 - 15 8 - - W 1012,6 35 0,0
18.08.2018 05:00:00 15,4 14,5 - 13 7 - - WSW 1012,6 35 0,0
18.08.2018 04:00:00 14,7 14,1 - 16 9 - - SW 1012,9 4,9 0,0
18.08.2018 03:00:00 14,5 13,2 - 15 8 - - WSW 1013,1 25 0,0
18.08.2018 02:00:00 14,7 13,3 - 15 8 - - WSW 1013,1 22 0,0
18.08.2018 01:00:00 14,4 13,8 - 13 7 - - WSW 1013,3 6 0,0
18.08.2018 00:00:00 14,5 13,7 - 13 7 - - WSW 1013,5 9 0,0
17.08.2018 23:00:00 14,8 13,6 - 13 7 - - WSW 1013,1 19 0,0
17.08.2018 22:00:00 14,8 13,6 - 13 7 - - W 1012,9 18 0,0
17.08.2018 21:00:00 15,3 13,7 - 13 7 - - W 1012,7 26 0,0
17.08.2018 20:00:00 15,7 13,8 - 18 10 - - WSW 1011,8 24 0,0
17.08.2018 19:00:00 15,9 14,4 - 13 7 - - WSW 1011,7 24 0,0
17.08.2018 18:00:00 15,7 14,4 - 15 8 - - WSW 1011,5 30 0,2
17.08.2018 17:00:00 16,1 14,5 - 16 9 50 27 W 1011,4 30 0,0
17.08.2018 16:00:00 15,6 14,7 - 21 11 46 25 WSW 1011,6 17 1,6
17.08.2018 15:00:00 15,4 14,5 - 18 10 - - WSW 1012,0 9 0,8
17.08.2018 14:00:00 14,4 13,7 - 18 10 - - SW 1012,1 16 0,4
17.08.2018 13:00:00 13,6 13,0 - 26 14 - - SW 1012,3 17 0,4
17.08.2018 12:00:00 13,3 12,6 - 26 14 46 25 SW 1012,7 15 0,8
17.08.2018 11:00:00 12,5 12,0 - 24 13 - - SW 1013,0 11 0,6
17.08.2018 10:00:00 11,5 11,2 14,7 18 10 - - SW 1013,7 5 1,0
17.08.2018 09:00:00 11,2 10,7 - 21 11 - - SW 1013,8 6 1,6
17.08.2018 08:00:00 10,8 10,3 - 15 8 - - SSW 1014,0 9 0,8
17.08.2018 07:00:00 10,8 10,1 - 15 8 - - SW 1014,2 15 0,4
17.08.2018 06:00:00 10,9 9,7 - 11 6 - - WSW 1014,0 14 0,0
17.08.2018 05:00:00 11,0 9,6 - 11 6 - - WSW 1014,1 35 0,0
17.08.2018 04:00:00 10,8 9,5 - 9 5 - - WSW 1014,5 45 0,0
17.08.2018 03:00:00 11,1 9,3 - 11 6 - - W 1014,3 40 0,0
17.08.2018 02:00:00 11,3 9,7 - 11 6 - - WSW 1014,1 45 0,0
17.08.2018 01:00:00 11,0 9,3 - 9 5 - - WSW 1014,3 40 0,0
17.08.2018 00:00:00 11,9 9,6 - 9 5 - - W 1014,3 50 0,0
16.08.2018 23:00:00 11,6 8,9 - 5 3 - - W 1013,8 35 0,0
16.08.2018 22:00:00 12,7 9,0 - 9 5 - - WNW 1013,5 40 0,0
16.08.2018 21:00:00 13,0 8,8 - 11 6 - - NW 1012,7 40 0,0
16.08.2018 20:00:00 14,0 8,4 - 13 7 - - NW 1011,8 40 0,0
16.08.2018 19:00:00 14,7 8,7 - 16 9 - - NW 1011,2 40 0,0
16.08.2018 18:00:00 16,3 9,5 - 18 10 - - NW 1010,5 29 0,0
16.08.2018 17:00:00 15,7 10,5 - 11 6 - - WNW 1009,8 25 0,0
16.08.2018 16:00:00 14,6 11,9 - 13 7 - - NW 1009,6 35 0,6
16.08.2018 15:00:00 17,0 10,5 - 13 7 - - WNW 1008,8 40 0,0
16.08.2018 14:00:00 16,3 10,9 - 16 9 - - WNW 1008,3 40 0,0
16.08.2018 13:00:00 15,7 10,2 - 16 9 - - WNW 1007,8 24 0,2
16.08.2018 12:00:00 14,7 8,9 - 15 8 - - W 1007,7 45 0,0
16.08.2018 11:00:00 14,3 9,6 - 13 7 - - W 1007,3 24 0,0
16.08.2018 10:00:00 13,9 10,5 14,7 16 9 - - WSW 1007,3 30 0,0
16.08.2018 09:00:00 11,8 10,3 - 15 8 - - SW 1007,1 21 0,0
16.08.2018 08:00:00 10,4 9,7 - 15 8 - - SW 1007,0 22 0,0
16.08.2018 07:00:00 9,5 8,9 - 15 8 - - SW 1007,0 19 0,0
16.08.2018 06:00:00 9,3 8,7 - 15 8 - - SW 1006,9 15 0,0
16.08.2018 05:00:00 9,4 8,6 - 13 7 - - SW 1006,8 15 0,0
16.08.2018 04:00:00 9,2 8,3 - 11 6 - - SW 1007,0 18 0,0
16.08.2018 03:00:00 9,1 8,6 - 9 5 - - SW 1007,1 14 0,0
16.08.2018 02:00:00 9,8 8,3 - 8 4 - - WSW 1007,3 15 0,0
16.08.2018 01:00:00 11,2 8,7 - 11 6 - - WSW 1007,2 21 0,0
16.08.2018 00:00:00 12,6 10,6 - 9 5 - - W 1007,0 18 0,0
15.08.2018 23:00:00 13,5 12,7 - 9 5 - - WSW 1006,5 35 0,0
15.08.2018 22:00:00 13,8 11,8 - 9 5 - - WSW 1006,2 17 0,0
15.08.2018 21:00:00 14,0 9,3 - 11 6 - - SW 1006,1 50 0,0
15.08.2018 20:00:00 15,2 9,1 - 13 7 - - WSW 1006,1 50 0,0
15.08.2018 19:00:00 16,0 9,9 - 13 7 - - WSW 1006,2 50 0,2
15.08.2018 18:00:00 16,9 10,5 - 11 6 - - WSW 1006,5 23 0,0
15.08.2018 17:00:00 19,2 9,7 - 13 7 - - W 1006,8 50 0,0
15.08.2018 16:00:00 20,6 10,5 - 16 9 55 30 W 1007,0 45 0,0
15.08.2018 15:00:00 21,4 11,0 - 18 10 - - W 1007,2 40 0,0
15.08.2018 14:00:00 20,4 12,3 - 26 14 52 28 WSW 1007,5 45 0,0
15.08.2018 13:00:00 20,0 13,3 - 29 16 57 31 SW 1007,7 50 0,0
15.08.2018 12:00:00 18,6 12,9 - 28 15 54 29 SW 1008,3 50 0,0
15.08.2018 11:00:00 18,2 13,8 - 26 14 - - SW 1008,8 50 0,0
15.08.2018 10:00:00 16,3 14,4 14,7 16 9 - - WSW 1009,4 45 0,0
15.08.2018 09:00:00 15,6 13,4 - 15 8 - - WSW 1009,6 45 0,0
15.08.2018 08:00:00 15,6 13,7 - 15 8 - - WSW 1009,8 45 0,0
15.08.2018 07:00:00 15,5 14,3 - 21 11 - - SW 1009,8 45 0,0
15.08.2018 06:00:00 15,3 15,0 - 18 10 - - SW 1009,6 25 0,4
15.08.2018 05:00:00 15,4 15,1 - 16 9 - - SW 1010,0 11 0,4
15.08.2018 04:00:00 15,5 15,0 - 21 11 - - SW 1010,4 4,8 0,0
15.08.2018 03:00:00 15,5 14,9 - 22 12 - - SW 1010,7 12 0,0
15.08.2018 02:00:00 15,7 14,2 - 21 11 - - SW 1011,1 30 0,0
15.08.2018 01:00:00 15,6 14,3 - 22 12 - - SW 1011,1 50 0,0
15.08.2018 00:00:00 15,8 14,9 - 18 10 - - SW 1012,0 13 0,0
14.08.2018 23:00:00 15,8 15,1 - 21 11 - - SW 1012,1 15 0,0
14.08.2018 22:00:00 16,2 15,4 - 21 11 - - WSW 1012,4 16 0,0
14.08.2018 21:00:00 16,4 15,5 - 15 8 - - SW 1012,6 18 0,4
14.08.2018 20:00:00 17,1 15,2 - 15 8 - - WSW 1012,4 50 0,0
14.08.2018 19:00:00 17,5 15,3 - 11 6 - - WSW 1012,4 40 0,0
14.08.2018 18:00:00 17,7 15,2 - 13 7 - - W 1012,5 35 0,0
14.08.2018 17:00:00 - - - - - - - - - - 0,0
14.08.2018 16:00:00 - - - - - - - - - - 0,0
14.08.2018 15:00:00 - - - - - - - - - - 0,0
14.08.2018 14:00:00 - - - - - - - - - - 0,0
14.08.2018 13:00:00 - - - - - - - - - - 0,0
14.08.2018 12:00:00 17,1 15,2 - 9 5 - - WSW 1012,4 25 0,2
14.08.2018 11:00:00 17,2 14,7 - 9 5 - - WSW 1012,3 40 0,0
14.08.2018 10:00:00 16,0 14,7 14,7 11 6 - - SW 1012,4 40 0,0
14.08.2018 09:00:00 15,4 14,4 - 11 6 - - SW 1012,2 11 0,0
14.08.2018 08:00:00 15,0 14,1 - 15 8 - - SW 1012,0 35 0,0
14.08.2018 07:00:00 14,6 13,8 - 8 4 - - WSW 1011,8 40 0,0
14.08.2018 06:00:00 14,3 14,1 - 8 4 - - WSW 1011,7 30 0,0
14.08.2018 05:00:00 14,3 13,9 - 8 4 - - WSW 1011,9 4,0 0,0
14.08.2018 04:00:00 14,1 13,3 - 11 6 - - SW 1011,9 30 0,0
14.08.2018 03:00:00 14,0 13,1 - 8 4 - - WSW 1012,1 28 0,0
14.08.2018 02:00:00 14,0 13,2 - 5 3 - - WSW 1012,3 26 0,0
14.08.2018 01:00:00 14,1 13,1 - 4 2 - - WSW 1012,2 45 0,0
14.08.2018 00:00:00 13,8 13,1 - 5 3 - - NW 1012,1 26 0,0
13.08.2018 23:00:00 14,9 13,0 - 8 4 - - NW 1011,7 35 0,0
13.08.2018 22:00:00 14,4 12,8 - 4 2 - - WNW 1011,5 50 0,0
13.08.2018 21:00:00 15,2 12,6 - 0 0 - - N 1010,9 45 0,0
13.08.2018 20:00:00 16,2 13,0 - 5 3 - - NW 1010,4 50 0,0

tt = temperature
td = dewpoint
tt -100cm = temperature -100cm
ff = wind speed
fx = gusts
dd = wind direction
ppp = reduced air pressure
vv = visibility
rr = precipitation

Next stations